Back to catalog

STARLINK-36190

AliveCommunicationsVLEO
NORAD 67029·PAYLOAD·🇺🇸 United States

Launched Dec 10, 2025 from Vandenberg Space Force Base

Loading…

Next Passes (next 24 hours)

TLE

FreshSource: CelesTrak SupGP

Epoch: Sep 15, 2026, 04:12 UTC

1 67029C 25293AC  26258.17548611  .00041776  00000+0  35005-2 0  2588
2 67029  70.0020 336.8707 0003418 265.6876 200.8175 14.98314089    16

Track STARLINK-36190 in real time with AllMySat

Download on the App Store